Back to catalog

TITAN 3C TRANSTAGE R/B

AliveHEO
NORAD 2770·ROCKET BODY·🇺🇸 United States

Launched Apr 28, 1967 from Cape Canaveral Space Force Station

Loading…

Next Passes (next 24 hours)

TLE

FreshSource: Space-Track

Epoch: Sep 14, 2026, 15:05 UTC

1 02770U 67040F   26257.62847559 -.00000742  00000-0  00000-0 0  9995
2 02770  14.4375 204.7326 8024664   0.6662 359.2306  0.50947096 23751

Track TITAN 3C TRANSTAGE R/B in real time with AllMySat

Download on the App Store